Location: Observatoire
(46.1952°N, 5.3391°E)
Time: 01:51:59
(UTC+01:00)

Altair - Pass Details

Date: 26 February 2026
Orbit: 1502 x 1682 km, 47.2° (Epoch: 10 March)

Event Time Altitude Azimuth Distance (km) Brightness Sun altitude
Rises 02:38:46 0° 221° (SW) 4,633 - -46.1°
Reaches altitude 10° 02:41:53 10° 217° (SW) 3,647 - -45.8°
Maximum altitude 02:50:35 51° 145° (SE) 1,830 - -44.7°
Exits shadow 02:53:45 38° 97° (E) 2,172 8.3 -44.4°
Drops below altitude 10° 02:59:24 10° 73° (ENE) 3,694 10.0 -43.7°
Sets 03:02:34 0° 69° (ENE) 4,697 10.8 -43.3°
